Flag for Brazil Weather past 2 weeks in Santarém, Para, Brazil

Now
73 °F

Clear.


Feels Like: 68 °F
Forecast: 74 / 85 °F
Wind: No wind

Location: Santarem-Aeroporto

Current Time: Mar 2, 2015 at 1:10:27 AM

Latest Report: Mar 2, 2015 at 12:00 AM


Visibility: 10 mi

Pressure: 29.89 "Hg

Humidity: 100%

Dew point: 73 °F

Location of SantarémLocation

Historic Weather in Santarém — Graph

°F

Santarém temperature yesterday

Maximum temperature yesterday: 86 °F (at 11:00 AM)
Minimum temperature yesterday: 73 °F (at 3:00 AM)
Average temperature yesterday: 78 °F

Past Weeks' High & Low Weather Summary

 TemperatureHumidityPressure
High90 °F (Feb 16, 3:00 PM)100% (Feb 15, 9:00 PM)29.95 "Hg (Feb 15, 9:00 PM)
Low36 °F (Feb 28, 5:00 AM)59% (Feb 16, 5:00 PM)29.71 "Hg (Feb 26, 6:00 PM)
Average79 °F87%29.85 "Hg
* Reported Feb 14 11:00 PM — Mar 1 11:00 PM, Santarém, Weather by CustomWeather, © 2015

Note: Actual official high and low records may vary slightly from our data, if they occured in-between our weather recording intervals... More about our weather records

Advertising

Santarém weather history for previous 24 hours

 ConditionsComfort  
Time TempWeatherWind HumidityBarometerVisibility
11:00 PM
Sun, Mar 1
75 °FPassing clouds.No wind94%29.89 "HgN/A
10:00 PM75 °FPassing clouds.No wind94%29.89 "HgN/A
9:00 PM75 °FPassing clouds.No wind94%29.86 "HgN/A
8:00 PM77 °FPassing clouds.5 mph94%29.83 "HgN/A
7:00 PM79 °FSunny.3 mph89%29.77 "Hg10 mi
6:00 PM81 °FPassing clouds.3 mph84%29.77 "HgN/A
5:00 PM81 °FScattered clouds.7 mph84%29.77 "HgN/A
4:00 PM81 °FScattered clouds.5 mph84%29.77 "HgN/A
3:00 PM82 °FScattered clouds.6 mph84%29.80 "HgN/A
2:00 PM81 °FScattered clouds.No wind84%29.86 "HgN/A
1:00 PM81 °FScattered clouds.8 mph84%29.89 "HgN/A
12:00 PM86 °FScattered showers. Scattered clouds.15 mph75%N/AN/A
11:00 AM86 °FScattered clouds.12 mph79%29.92 "HgN/A
10:00 AM84 °FScattered clouds.15 mph79%29.92 "HgN/A
9:00 AM84 °FScattered clouds.7 mph84%29.89 "HgN/A
8:00 AM79 °FScattered clouds.3 mph89%29.89 "HgN/A
7:00 AM75 °FPassing clouds.No wind94%29.86 "HgN/A
6:00 AM73 °FClear.3 mph100%29.86 "Hg10 mi
5:00 AM73 °FClear.No wind100%29.83 "Hg10 mi
4:00 AM73 °FClear.3 mph100%29.83 "Hg10 mi
3:00 AM73 °FClear.No wind100%29.83 "Hg10 mi
2:00 AM75 °FClear.No wind94%29.83 "Hg10 mi
1:00 AM75 °FClear.No wind100%29.86 "Hg10 mi
Weather by CustomWeather, © 2015

See weather overviewHow to use our weather pages